Date String (YYYY-MM-DD hh:mm:ss) UTC,Instrument flags,Ambient pressure (hPa),Sample flow (lpm),Bypass flow (lpm),Sample temperature (°C),Ambient temperature (°C),ASC tube jacket temperature (°C),LED temperature (°C),Box temperature (°C),Sample RH (%),Span deviation,Mass concentration (μg/m³),Mass concentration (μg/m³),Mass concentration (μg/m³)
DateTimeUTC,F1_M11,P_M11,Q1_M11,Q2_M11,T1_M11,T2_M11,T3_M11,T4_M11,T5_M11,U1_M11,ZSPAN_M11,X0_M11,X2_M11,X1_M11
2023-03-12 17:00:00,,0825.9,5.00,0.00,22.7,21.4,00.0,31.4,24.4,12.5,0000.2,0009.20,0005.09,0004.71
2023-03-12 17:01:00,,0825.9,5.01,0.00,22.7,21.3,00.0,31.4,24.4,12.5,0000.2,0009.27,0005.07,0004.72
2023-03-12 17:02:00,,0825.9,5.00,0.00,22.7,21.2,00.0,31.4,24.4,12.5,0000.0,0009.28,0005.08,0004.72
2023-03-12 17:03:00,,0825.9,5.00,0.00,22.7,21.1,00.0,31.4,24.4,12.4,0000.0,0009.41,0005.11,0004.73
2023-03-12 17:04:00,,0825.9,5.00,0.00,22.7,21.0,00.0,31.4,24.3,12.3,0000.0,0009.67,0005.12,0004.73
2023-03-12 17:05:00,,0825.9,5.00,0.00,22.6,21.0,00.0,31.4,24.3,12.4,0000.0,0009.68,0005.10,0004.71
2023-03-12 17:06:00,,0825.9,5.00,0.00,22.6,21.0,00.0,31.4,24.3,12.4,0000.0,0009.63,0005.06,0004.70
2023-03-12 17:07:00,,0826.0,4.99,0.00,22.6,20.9,00.0,31.4,24.3,12.4,0000.0,0009.66,0005.05,0004.69
2023-03-12 17:08:00,,0826.0,5.00,0.00,22.6,20.8,00.0,31.4,24.3,12.5,0000.0,0009.63,0005.03,0004.67
2023-03-12 17:09:00,,0826.0,5.00,0.00,22.6,20.8,00.0,31.4,24.2,12.5,0000.0,0009.34,0005.02,0004.65
2023-03-12 17:10:00,,0826.0,5.01,0.00,22.5,20.7,00.0,31.3,24.1,12.4,0000.0,0008.95,0005.02,0004.63
2023-03-12 17:11:00,,0826.0,5.01,0.00,22.5,20.9,00.0,31.3,24.2,12.4,0000.0,0008.82,0005.00,0004.62
2023-03-12 17:12:00,,0826.0,5.01,0.00,22.6,21.9,00.0,31.3,24.4,12.3,0000.0,0008.69,0005.00,0004.61
2023-03-12 17:13:00,,0826.0,5.00,0.00,22.7,23.0,00.0,31.3,24.7,12.2,0000.0,0008.60,0005.00,0004.60
2023-03-12 17:14:00,,0826.0,4.99,0.00,22.8,23.4,00.0,31.4,24.8,12.1,0000.0,0008.22,0004.98,0004.60
2023-03-12 17:15:00,,0826.0,5.01,0.00,22.8,22.9,00.0,31.4,24.8,12.1,0000.0,0007.92,0004.96,0004.59
2023-03-12 17:16:00,,0826.0,4.99,0.00,22.8,22.5,00.0,31.4,24.7,12.1,0000.0,0007.91,0004.99,0004.61
2023-03-12 17:17:00,,0826.1,5.01,0.00,22.8,22.2,00.0,31.4,24.6,12.1,0000.0,0007.94,0005.00,0004.60
2023-03-12 17:18:00,,0826.1,5.01,0.00,22.8,21.9,00.0,31.5,24.6,12.1,0000.0,0008.03,0005.00,0004.60
2023-03-12 17:19:00,,0826.1,4.99,0.00,22.8,21.7,00.0,31.5,24.5,12.2,0000.0,0008.27,0005.00,0004.60
2023-03-12 17:20:00,,0826.1,4.99,0.00,22.8,21.6,00.0,31.5,24.5,12.3,0000.0,0008.19,0004.97,0004.60
2023-03-12 17:21:00,,0826.1,5.01,0.00,22.8,21.5,00.0,31.5,24.5,12.3,0000.0,0008.05,0004.94,0004.59
2023-03-12 17:22:00,,0826.2,5.01,0.00,22.8,21.4,00.0,31.5,24.5,12.3,0000.0,0008.00,0004.93,0004.59
2023-03-12 17:23:00,,0826.2,5.00,0.00,22.8,21.3,00.0,31.5,24.5,12.3,0000.0,0008.05,0004.92,0004.59
2023-03-12 17:24:00,,0826.2,5.01,0.00,22.7,21.2,00.0,31.5,24.4,12.2,0000.0,0008.15,0004.93,0004.58
2023-03-12 17:25:00,,0826.2,5.00,0.00,22.7,21.1,00.0,31.5,24.4,12.2,0000.0,0008.34,0004.93,0004.58
2023-03-12 17:26:00,,0826.2,4.98,0.00,22.7,21.0,00.0,31.5,24.3,12.2,0000.0,0008.36,0004.94,0004.58
2023-03-12 17:27:00,,0826.2,5.00,0.00,22.7,21.0,00.0,31.5,24.3,12.1,0000.0,0008.35,0004.93,0004.58
2023-03-12 17:28:00,,0826.2,5.01,0.00,22.7,20.9,00.0,31.4,24.3,12.1,0000.0,0008.35,0004.94,0004.59
2023-03-12 17:29:00,,0826.2,5.00,0.00,22.6,20.9,00.0,31.4,24.3,12.1,0000.0,0008.42,0004.95,0004.59
2023-03-12 17:30:00,,0826.1,5.02,0.00,22.6,20.8,00.0,31.4,24.2,12.1,0000.0,0008.20,0004.98,0004.60
2023-03-12 17:31:00,,0826.2,5.00,0.00,22.6,20.8,00.0,31.4,24.2,12.1,0000.0,0008.23,0005.01,0004.61
2023-03-12 17:32:00,,0826.1,5.00,0.00,22.5,20.8,00.0,31.4,24.2,12.3,0000.0,0008.26,0005.02,0004.62
2023-03-12 17:33:00,,0826.2,4.99,0.00,22.5,20.8,00.0,31.4,24.2,12.2,0000.0,0008.29,0005.03,0004.61
2023-03-12 17:34:00,,0826.2,5.00,0.00,22.5,20.7,00.0,31.3,24.2,12.2,0000.0,0008.27,0005.05,0004.61
2023-03-12 17:35:00,,0826.0,4.99,0.00,22.5,20.6,00.0,31.3,24.1,12.2,0000.0,0008.19,0005.05,0004.62
2023-03-12 17:36:00,,0826.0,5.00,0.00,22.5,20.7,00.0,31.3,24.1,12.3,0000.0,0007.98,0005.05,0004.64
2023-03-12 17:37:00,,0826.0,5.01,0.00,22.5,21.7,00.0,31.3,24.4,12.4,-001.1,0007.93,0005.05,0004.64
2023-03-12 17:38:00,,0826.1,4.96,0.00,22.7,22.7,00.0,31.3,24.6,12.3,-001.8,0007.92,0005.05,0004.64
2023-03-12 17:39:00,,0826.0,5.01,0.00,22.7,22.5,00.0,31.3,24.6,12.2,-002.0,0007.91,0005.05,0004.64
2023-03-12 17:40:00,,0826.0,5.00,0.00,22.7,22.1,00.0,31.3,24.5,12.1,-002.2,0007.83,0005.03,0004.65
2023-03-12 17:41:00,,0826.0,5.01,0.00,22.7,21.8,00.0,31.3,24.4,12.0,-000.1,0008.09,0005.00,0004.67
2023-03-12 17:42:00,,0826.0,5.00,0.00,22.7,21.6,00.0,31.4,24.4,12.0,0000.0,0008.19,0005.01,0004.67
2023-03-12 17:43:00,,0826.0,5.01,0.00,22.7,21.4,00.0,31.4,24.4,12.1,0000.0,0008.26,0005.02,0004.67
2023-03-12 17:44:00,,0826.0,5.00,0.00,22.6,21.2,00.0,31.4,24.3,12.1,0000.0,0008.36,0005.05,0004.69
2023-03-12 17:45:00,,0825.9,5.01,0.00,22.6,21.1,00.0,31.4,24.3,12.2,0000.0,0008.37,0005.05,0004.70
2023-03-12 17:46:00,,0825.9,4.98,0.00,22.6,21.0,00.0,31.4,24.3,12.3,-001.0,0008.49,0005.09,0004.71
2023-03-12 17:47:00,,0825.9,4.97,0.00,22.6,20.9,00.0,31.3,24.2,12.3,-002.0,0008.53,0005.10,0004.71
2023-03-12 17:48:00,,0825.9,5.00,0.00,22.5,20.8,00.0,31.3,24.2,12.3,-000.5,0008.74,0005.14,0004.73
2023-03-12 17:49:00,,0825.8,5.00,0.00,22.5,20.7,00.0,31.3,24.1,12.3,0000.0,0009.07,0005.15,0004.74
2023-03-12 17:50:00,,0825.7,5.00,0.00,22.5,20.7,00.0,31.3,24.1,12.5,0000.0,0009.17,0005.17,0004.75
2023-03-12 17:51:00,,0825.7,5.00,0.00,22.5,20.7,00.0,31.3,24.1,12.4,-000.0,0009.25,0005.20,0004.77
2023-03-12 17:52:00,,0825.7,5.01,0.00,22.4,20.7,00.0,31.3,24.1,12.3,-000.8,0008.96,0005.23,0004.77
2023-03-12 17:53:00,,0825.7,5.00,0.00,22.4,20.7,00.0,31.3,24.1,12.4,-000.7,0008.83,0005.24,0004.78
2023-03-12 17:54:00,,0825.7,5.01,0.00,22.4,20.8,00.0,31.3,24.1,12.6,-000.9,0008.78,0005.25,0004.79
2023-03-12 17:55:00,,0825.7,4.99,0.00,22.4,20.8,00.0,31.2,24.1,12.5,-001.1,0008.70,0005.24,0004.80
2023-03-12 17:56:00,,0825.6,4.99,0.00,22.4,20.8,00.0,31.2,24.1,12.4,-001.0,0008.72,0005.25,0004.81
2023-03-12 17:57:00,,0825.6,4.99,0.00,22.4,20.8,00.0,31.2,24.1,12.4,-000.6,0008.93,0005.25,0004.82
2023-03-12 17:58:00,,0825.6,5.00,0.00,22.4,20.9,00.0,31.2,24.1,12.4,-000.2,0009.58,0005.28,0004.84
2023-03-12 17:59:00,,0825.6,5.00,0.00,22.4,20.9,00.0,31.2,24.1,12.4,-000.1,0009.47,0005.28,0004.84
